Bladensburg, MD

10:54 PM EDT on September 23, 2014 (GMT -0400)
College Park | Change Station
CLOSE
Current Station
Airport
Location: College Park,
Elevation: 49 ft
Nearby Weather Stations

Elev 49 ft 38.98 °N, 76.92 °W | Updated 24 minutes ago

Partly Cloudy
Partly Cloudy
54 °F
Feels Like 54 °F
N
0
Wind Variable Wind from North

Today
High -- | Low -- °F
--% Chance of Precip.
Yesterday
High -- | Low -- °F
Precip. -- in
6:56 AM 7:03 PM
Waning Crescent, 0% visible
Pressure 30.38 in
Visibility 10.0 miles
Clouds Clear
Dew Point 52 °F
Humidity 94%
Rainfall 0.00 in
Snow Depth Not available.
UV 0 out of 12
Pollen 3.80 out of 12
Air Quality Not available.
Flu Activity Not available.
METAR KCGS 240230Z AUTO 00000KT 10SM CLR 12/11 A3038 RMK AO1

More Conditions Fewer Conditions

Pressure 30.38 in
Visibility 10.0 miles
Clouds Clear
Dew Point 52 °F
Humidity 94%
Rainfall 0.00 in
Snow Depth Not available.
UV 0 out of 12
Pollen 3.80 out of 12
Air Quality Not available.
Flu Activity Not available.
METAR KCGS 240230Z AUTO 00000KT 10SM CLR 12/11 A3038 RMK AO1

More Conditions Fewer Conditions

10-Day Weather Forecast

Almanac

Astronomy

Sep. 23, 2014 Rise Set
Actual Time 6:56 AM EDT 7:03 PM EDT
Civil Twilight 6:29 AM EDT 7:29 PM EDT
Nautical Twilight 5:58 AM EDT 8:00 PM EDT
Astronomical Twilight 5:26 AM EDT 8:32 PM EDT
Moon 6:18 AM EDT (9/23) 6:41 PM EDT (9/23)
Length of Visible Light 13h 00m
Length of Day
12h 06m
Tomorrow will be 2m 30s shorter.
Waning Crescent, 0% of the Moon is Illuminated
Today
Waning Crescent
Sep 24
New
Oct 1
First Quarter
Oct 8
Full
Oct 15
Last Quarter

Today's Extremes

State Highs State Lows

Community

WunderPhotos

Upload Photos

1,755,864 photos uploaded!

WunderBlogs® & News

Nearby

Snow Depth

Station Depth Elevation
No new snow has been reported.

Earthquake Activity

City Distance Mag. Time & Date
No recent earthquake activity has been reported nearby.
Minimum magnitude displayed is 2.5.

Coastal Water Temperatures

Place Temperature
Washington, DC 73.0 °F
Baltimore, MD 75.0 °F
Solomons Island, MD 73.0 °F

Nearby Weather Stations